Flag for Poland Weather past 2 weeks in Kielce, Poland

Now
65 °F

Overcast.


Feels Like: 65 °F
Forecast: 60 / 74 °F
Wind: 3 mph from Northeast

Location: Kielce

Current Time: Jul 24, 2014 at 8:07:15 PM

Latest Report: Jul 24, 2014 at 7:00 PM


Visibility: 7 mi

Pressure: 29.92 "Hg

Humidity: 95%

Dew point: 63 °F

Location of KielceLocation

Historic Weather in Kielce — Graph

°F

Kielce temperature yesterday

Maximum temperature yesterday: 73 °F (at 2:00 PM)
Minimum temperature yesterday: 61 °F (at 3:00 AM)
Average temperature yesterday: 64 °F

Past Weeks' High & Low Weather Summary

 TemperatureHumidityPressure
High85 °F (Jul 20, 4:00 PM)100% (Jul 12, 11:00 PM)30.16 "Hg (Jul 12, 11:00 PM)
Low50 °F (Jul 13, 5:00 AM)34% (Jul 20, 3:00 PM)29.65 "Hg (Jul 10, 12:00 AM)
Average67 °F80%29.93 "Hg
* Reported Jul 9 6:00 PM — Jul 24 6:00 PM, Kielce, Weather by CustomWeather, © 2014

Note: Actual official high and low records may vary slightly from our data, if they occured in-between our weather recording intervals... More about our weather records

Advertising

Kielce weather history for previous 24 hours

 ConditionsComfort  
Time TempWeatherWind HumidityBarometerVisibility
6:00 PM
Jul 24
65 °FRain. Overcast.2 mph97%29.92 "Hg4 mi
5:00 PM65 °FLight rain. Overcast.3 mph97%29.91 "Hg5 mi
4:00 PM64 °FLight rain. Overcast.2 mph98%29.91 "Hg4 mi
3:00 PM64 °FRain showers. Overcast.3 mph97%29.91 "Hg1 mi
2:00 PM66 °FOvercast.3 mph90%29.90 "Hg7 mi
1:00 PM64 °FLight rain. Overcast.3 mph93%29.90 "Hg6 mi
12:00 PM64 °FLight rain. Low clouds.5 mph93%29.89 "Hg6 mi
11:00 AM64 °FLight rain. Overcast.5 mph94%29.88 "Hg7 mi
10:00 AM64 °FLight rain. Low clouds.5 mph96%29.88 "Hg5 mi
9:00 AM62 °FRain. Low clouds.5 mph97%29.87 "Hg2 mi
8:00 AM62 °FRain. Low clouds.5 mph97%29.86 "Hg3 mi
7:00 AM62 °FRain. Low clouds.5 mph96%29.85 "Hg4 mi
6:00 AM62 °FLight rain. Low clouds.5 mph96%29.84 "Hg5 mi
5:00 AM61 °FLight rain. Low clouds.5 mph97%29.85 "Hg4 mi
4:00 AM61 °FRain. Low clouds.5 mph97%29.85 "Hg4 mi
3:00 AM60 °FHeavy rain. Overcast.6 mph97%29.87 "Hg2 mi
2:00 AM60 °FHeavy rain. Overcast.6 mph96%29.90 "Hg4 mi
1:00 AM61 °FHeavy rain. Low clouds.5 mph95%29.92 "Hg3 mi
12:00 AM62 °FLight rain. Overcast.3 mph93%29.93 "Hg5 mi
11:00 PM
Jul 23
62 °FOvercast.3 mph93%29.94 "Hg5 mi
10:00 PM62 °FSprinkles. Overcast.2 mph94%29.95 "Hg5 mi
9:00 PM62 °FFog.2 mph94%29.96 "Hg5 mi
8:00 PM64 °FOvercast.3 mph89%29.94 "Hg16 mi
Weather by CustomWeather, © 2014

See weather overviewHow to use our weather pages